{"data":{"norad_id":68069,"intl_designator":"2026-042A","name":"STARLINK-36766","alt_names":[],"object_type":"PAYLOAD","status":"ACTIVE","operator":null,"country":"US","launch_date":"2026-03-04","launch_site_code":"AFETR","launch_vehicle":null,"mission":null,"orbit_class":"UNKNOWN","rcs_meters":null,"size_class":null,"mass_kg":null,"dimensions":null,"purposes":["comms"],"wikipedia_slug":null,"has_3d_model":false,"image_url":null,"decayed_at":null,"tle_current":{"epoch":"2026-09-20T02:15:46.991232Z","epoch_age_seconds":90226,"freshness":"FRESH","line1":"1 68069U 26042A   26263.09429388  .00013421  00000+0  40753-3 0  9997","line2":"2 68069  53.1556 351.8861 0002088  78.6738 281.4499 15.34408957 32126","mean_motion":15.34408957,"eccentricity":0.0002088,"inclination_deg":53.1556,"raan_deg":351.8861,"arg_perigee_deg":78.6738,"mean_anomaly_deg":281.4499,"bstar":0.00040753,"rev_number":3212,"period_min":93.847210251915,"perigee_km":461.24825636152,"apogee_km":464.1049801285,"semimajor_km":6840.813618245,"source":"CELESTRAK","updated_at":"2026-09-20T09:00:43.753272Z"}}}